User: anonymous   Login
Location: Caltech
(34.1382°N, 118.1253°W)
Time: 09:55:21
(UTC-07:00)
Language:

Cosmos 1484 Rocket - Orbit

View from above orbital plane
View from above orbital plane
View from above satellite
View from above satellite

Ground track
Ground track

The orbit data is extracted from the following two-line orbital elements,

1 14208U 83075B   15241.16994038  .00001255  00000-0  81612-4 0  9996
2 14208 097.3808 266.9657 0039171 237.8797 121.8628 15.09173660748215
Epoch (UTC): 29 August 2015 04:04:42
Eccentricity: 0.0039171
inclination: 97.3808°
perigee height: 511 km
apogee height: 566 km
right ascension of ascending node: 266.9657°
argument of perigee: 237.8797°
revolutions per day: 15.09173660
mean anomaly at epoch: 121.8628°
orbit number at epoch: 74821

The dashed part of the orbit path shows where the satellite is in the earth's shadow,  

DLR